Regional Weather Roundup
Issued by NWS Albany, NY

Home | Current Version | Previous Version | Graphics & Text | Print | Product List | Glossary Off
Versions: 1 2 3 4 5 6 7 8 9 10 11 12 13 14 15 16 17 18 19 20 21 22 23 24 25 26 27 28 29 30 31 32 33 34 35 36 37 38 39 40 41 42 43 44 45 46 47 48 49

000
ASUS41 KALY 061110
RWRALY

NEW YORK STATE HOURLY WEATHER ROUNDUP
NATIONAL WEATHER SERVICE ALBANY NY
600 AM EST FRI MAR 06 2015

NOTE: "FAIR" INDICATES FEW OR NO CLOUDS BELOW 12,000 FEET WITH NO
SIGNIFICANT WEATHER AND/OR NO OBSTRUCTIONS TO VISIBILITY.

NYZ032-033-038>043-046>054-057>066-NYZ062>081-061200-
EAST


CITY           SKY/WX    TMP DP  RH WIND       PRES   REMARKS
ALBANY         PTCLDY     3  -6  66 W3        30.49R
GLENS FALLS    PTCLDY   -11 -18  71 CALM      30.48R
POUGHKEEPSIE   CLEAR      1  -5  75 CALM      30.50R
NEWBURGH       CLEAR      1  -4  78 CALM      30.47R
MONTGOMERY     PTCLDY    -1  -7  75 E3        30.47R
WHITE PLAINS   CLEAR      4  -3  73 W5        30.46R WCI  -5
ISLIP          CLEAR     12  -1  56 N12       30.47R WCI  -2
NEW YORK CITY  CLEAR     15   2  56 N8        30.50R WCI   4
CENTRAL PARK   CLEAR     13   0  56 VRB5      30.52R WCI   5
$$

NYZ005>009-017-018-044>046-055-056-061200-
CENTRAL


CITY           SKY/WX    TMP DP  RH WIND       PRES   REMARKS
FULTON         FAIR      -1  -5  82 CALM      30.49S
SYRACUSE       PTCLDY    -3  -3 100 S3        30.50S
ROME           MOCLDY    -9 -12  87 CALM      30.52R
ELMIRA         FAIR      -4  -7  87 SW3       30.48R
BINGHAMTON     MOCLDY    -3  -6  87 SW3       30.38R
MONTICELLO     PTCLDY     0  -2  92 CALM      30.38S
$$

NYZ026>034-041>043-061200-
NORTH


CITY           SKY/WX    TMP DP  RH WIND       PRES   REMARKS
WATERTOWN      MOCLDY    -3 -10  72 S7        30.50S WCI -16
FORT DRUM      NOT AVBL
MASSENA        MOCLDY   -12 -19  71 SW5       30.48R WCI -24
SARANAC LAKE   MOCLDY   -27 -32  77 CALM      30.29R
PLATTSBURGH    PTCLDY   -10 -15  78 CALM      30.45R
$$

NYZ001>004-010>016-019>021-061200-
WEST


CITY           SKY/WX    TMP DP  RH WIND       PRES   REMARKS
NIAGARA FALLS  PTCLDY     1  -3  83 S9        30.49  WCI -14
BUFFALO        MOCLDY     0  -4  83 SW8       30.49R WCI -14
DUNKIRK        PTCLDY     0  -5  79 S7        30.51R WCI -13
JAMESTOWN      PTCLDY    -2  -8  78 SW3       30.39R
WELLSVILLE     PTCLDY    -3  -8  79 W7        30.35R WCI -16
ROCHESTER      MOCLDY     0  -6  76 SW8       30.50R WCI -14
PENN YAN       PTCLDY     1  -6  72 SW9       30.46R WCI -14
$$

             KEY
       WCI = WIND CHILL INDEX
       VSB = VISIBILITY
       HX  = HEAT INDEX
$$



USA.gov is the U.S. government's official web portal to all federal, state and local government web resources and services.